Waskish, MN

9:19 PM CDT on September 25, 2016 (GMT -0500)
Waskish Municipal

Weather History for KVWU - November, 2012

Change the Weather History Date:

Wednesday, November 28, 2012

  Actual Average (KBDE) Record (KBDE)
Temperature  
Mean Temperature 14 °F -  
Max Temperature 28 °F 24 °F 45 °F (1962)
Min Temperature 0 °F 8 °F -27 °F (1985)
Degree Days  
Heating Degree Days 51    
Moisture  
Dew Point 14 °F    
Average Humidity 86    
Maximum Humidity 100    
Minimum Humidity 74    
Precipitation  
Precipitation 0.00 in - - ()
Sea Level Pressure  
Sea Level Pressure 30.12 in    
Wind  
Wind Speed 4 mph (WSW)    
Max Wind Speed 15 mph    
Max Gust Speed 20 mph    
Visibility 9 miles    
Events Snow    
Averages and records for this station are not official NWS values.
T = Trace of Precipitation, MM = Missing Value Source: NWS Daily Summary

Daily Weather History Graph

Daily Weather History Graph

Search for Another Location

Airport or City:

Trip Planner

Search our weather history database for the weather conditions in past years. The results will help you decide how hot, cold, wet, or windy it might be!

Date:

Astronomy

Nov. 28, 2012 Rise Set
Actual Time 7:44 AM CST 4:27 PM CST
Civil Twilight 7:08 AM CST 5:03 PM CST
Nautical Twilight 6:29 AM CST 5:42 PM CST
Astronomical Twilight 5:52 AM CST 6:19 PM CST
Moon 4:43 PM CST (11/28) 7:42 AM CST (11/28)
Length of Visible Light 9h 54m
Length of Day
8h 43m
Full, 100% of the Moon is Illuminated
Nov 28
Full
Dec 6
Last Quarter
Dec 13
New
Dec 19
First Quarter
Dec 28
Full

Hourly Weather History & Observations

Time (CST) Temp. Windchill Dew Point Humidity Pressure Visibility Wind Dir Wind Speed Gust Speed Precip Events Conditions
12:29 AM 5.0 °F - 1.4 °F 85% 30.24 in 10.0 mi Calm Calm - N/A   Overcast
12:49 AM 6.8 °F -2.0 °F 1.4 °F 79% 30.23 in 10.0 mi NNW 4.6 mph - N/A   Overcast
1:09 AM 6.8 °F -0.1 °F 1.4 °F 79% 30.24 in 10.0 mi NW 3.5 mph - N/A   Overcast
1:29 AM 6.8 °F - 1.4 °F 79% 30.24 in 10.0 mi Calm Calm - N/A   Overcast
1:49 AM 6.8 °F - 1.4 °F 79% 30.24 in 10.0 mi Calm Calm - N/A Snow Light Snow
2:29 AM 6.8 °F - 3.2 °F 85% 30.25 in 10.0 mi Calm Calm - N/A   Overcast
2:49 AM 6.8 °F - 3.2 °F 85% 30.24 in 10.0 mi Calm Calm - N/A   Overcast
3:29 AM 6.8 °F - 3.2 °F 85% 30.24 in 10.0 mi Calm Calm - N/A Snow Light Snow
3:49 AM 6.8 °F - 3.2 °F 85% 30.24 in 10.0 mi Calm Calm - N/A Snow Light Snow
4:09 AM 6.8 °F - 3.2 °F 85% 30.23 in 10.0 mi Calm Calm - N/A Snow Light Snow
4:49 AM 6.8 °F - 3.2 °F 85% 30.22 in 4.0 mi Calm Calm - N/A Snow Light Snow
5:09 AM 6.8 °F - 3.2 °F 85% 30.22 in 10.0 mi Calm Calm - N/A Snow Light Snow
5:29 AM 6.8 °F -0.1 °F 3.2 °F 85% 30.22 in 10.0 mi WSW 3.5 mph - N/A   Scattered Clouds
5:49 AM 6.8 °F - 3.2 °F 85% 30.22 in 10.0 mi Calm Calm - N/A Snow Light Snow
6:29 AM -0.4 °F - -4.0 °F 85% 30.22 in 10.0 mi Calm Calm - N/A   Scattered Clouds
6:49 AM -0.4 °F - -2.2 °F 92% 30.21 in 10.0 mi Calm Calm - N/A Snow Light Snow
7:09 AM 6.8 °F -5.9 °F 6.8 °F 100% 30.21 in 10.0 mi SW 8.1 mph - N/A Snow Light Snow
7:29 AM 10.4 °F -4.8 °F 8.6 °F 92% 30.20 in 5.0 mi WSW 12.7 mph - N/A Snow Light Snow
7:49 AM 12.2 °F 0.7 °F 10.4 °F 92% 30.19 in 4.0 mi SW 8.1 mph - N/A Snow Light Snow
8:09 AM 12.2 °F -2.5 °F 10.4 °F 92% 30.19 in 7.0 mi SW 12.7 mph - N/A Snow Light Snow
8:29 AM 12.2 °F 1.7 °F 10.4 °F 92% 30.18 in 7.0 mi SW 6.9 mph - N/A Snow Light Snow
8:49 AM 14.0 °F 6.5 °F 10.4 °F 86% 30.18 in 4.0 mi SSW 4.6 mph - N/A Snow Light Snow
9:09 AM 14.0 °F 6.5 °F 10.4 °F 86% 30.18 in 4.0 mi SSW 4.6 mph - N/A Snow Light Snow
9:29 AM 14.0 °F - 10.4 °F 86% 30.18 in 3.0 mi Calm Calm - N/A Snow Light Snow
9:49 AM 15.8 °F 10.2 °F 12.2 °F 86% 30.17 in 3.0 mi South 3.5 mph - N/A Snow Light Snow
10:09 AM 15.8 °F 10.2 °F 12.2 °F 86% 30.17 in 7.0 mi South 3.5 mph - N/A Snow Light Snow
10:29 AM 17.6 °F 10.7 °F 14.0 °F 86% 30.16 in 10.0 mi SSW 4.6 mph - N/A   Overcast
10:49 AM 17.6 °F 6.4 °F 14.0 °F 86% 30.16 in 10.0 mi SSW 9.2 mph - N/A   Overcast
11:09 AM 19.4 °F 12.8 °F 15.8 °F 86% 30.15 in 10.0 mi SSW 4.6 mph - N/A   Overcast
11:29 AM 19.4 °F 12.8 °F 15.8 °F 86% 30.13 in 10.0 mi SSW 4.6 mph - N/A   Overcast
11:49 AM 19.4 °F 14.3 °F 17.6 °F 93% 30.12 in 10.0 mi South 3.5 mph - N/A   Overcast
12:09 PM 21.2 °F 11.7 °F 17.6 °F 86% 30.11 in 10.0 mi SSW 8.1 mph - N/A   Overcast
12:29 PM 23.0 °F 18.4 °F 19.4 °F 86% 30.09 in 10.0 mi South 3.5 mph - N/A   Overcast
12:49 PM 24.8 °F 16.9 °F 19.4 °F 80% 30.07 in 10.0 mi South 6.9 mph - N/A   Mostly Cloudy
1:09 PM 26.6 °F 21.2 °F 21.2 °F 80% 30.05 in 10.0 mi SSW 4.6 mph - N/A   Scattered Clouds
1:29 PM 28.4 °F 21.2 °F 21.2 °F 74% 30.03 in 10.0 mi South 6.9 mph - N/A   Clear
1:49 PM 26.6 °F 18.2 °F 21.2 °F 80% 30.03 in 10.0 mi South 8.1 mph - N/A   Clear
2:09 PM 28.4 °F 20.4 °F 21.2 °F 74% 30.03 in 10.0 mi SSW 8.1 mph - N/A   Clear
2:29 PM 28.4 °F 20.4 °F 21.2 °F 74% 30.02 in 10.0 mi SW 8.1 mph - N/A   Scattered Clouds
2:49 PM 28.4 °F 20.4 °F 23.0 °F 80% 30.01 in 10.0 mi SSW 8.1 mph - N/A   Scattered Clouds
3:09 PM 28.4 °F 20.4 °F 23.0 °F 80% 30.01 in 10.0 mi SW 8.1 mph - N/A   Clear
3:29 PM 26.6 °F 21.2 °F 21.2 °F 80% 30.00 in 10.0 mi SW 4.6 mph - N/A   Clear
3:49 PM 26.6 °F 22.6 °F 23.0 °F 86% 29.99 in 10.0 mi SSW 3.5 mph - N/A   Clear
4:09 PM 24.8 °F 14.6 °F 21.2 °F 86% 30.02 in 10.0 mi WNW 10.4 mph - N/A   Clear
4:28 PM 24.8 °F 19.1 °F 21.2 °F 86% 30.02 in 10.0 mi West 4.6 mph - N/A   Clear
4:49 PM 24.8 °F 19.1 °F 21.2 °F 86% 30.02 in 7.0 mi WSW 4.6 mph - N/A   Clear
5:09 PM 24.8 °F 19.1 °F 23.0 °F 93% 30.03 in 10.0 mi WSW 4.6 mph - N/A   Mostly Cloudy
5:28 PM 24.8 °F 17.9 °F 23.0 °F 93% 30.04 in 10.0 mi West 5.8 mph - N/A   Overcast
5:49 PM 24.8 °F 20.5 °F 21.2 °F 86% 30.04 in 10.0 mi WSW 3.5 mph - N/A   Overcast
6:28 PM 26.6 °F 22.6 °F 24.8 °F 93% 30.05 in 7.0 mi WNW 3.5 mph - N/A   Overcast
6:49 PM 26.6 °F 20.0 °F 24.8 °F 93% 30.06 in 10.0 mi West 5.8 mph - N/A   Overcast
7:09 PM 26.6 °F 19.1 °F 24.8 °F 93% 30.06 in 10.0 mi West 6.9 mph - N/A   Overcast
7:29 PM 26.6 °F 20.0 °F 24.8 °F 93% 30.06 in 7.0 mi West 5.8 mph - N/A   Overcast
7:49 PM 26.6 °F 22.6 °F 24.8 °F 93% 30.06 in 7.0 mi West 3.5 mph - N/A   Overcast
8:09 PM 28.4 °F 23.3 °F 24.8 °F 86% 30.06 in 7.0 mi West 4.6 mph - N/A   Overcast
8:28 PM 26.6 °F 21.2 °F 24.8 °F 93% 30.06 in 7.0 mi West 4.6 mph - N/A   Overcast
8:49 PM 26.6 °F 21.2 °F 24.8 °F 93% 30.06 in 10.0 mi West 4.6 mph - N/A   Overcast
9:09 PM 26.6 °F 19.1 °F 24.8 °F 93% 30.06 in 10.0 mi NW 6.9 mph - N/A   Overcast
9:28 PM 23.0 °F 10.1 °F 19.4 °F 86% 30.08 in 10.0 mi North 15.0 mph 19.6 mph N/A   Overcast
9:49 PM 19.4 °F 7.9 °F 17.6 °F 93% 30.08 in 10.0 mi North 10.4 mph 18.4 mph N/A   Overcast
10:09 PM 19.4 °F 8.6 °F 15.8 °F 86% 30.09 in 10.0 mi NNW 9.2 mph 17.3 mph N/A   Overcast
10:28 PM 17.6 °F 5.7 °F 14.0 °F 86% 30.09 in 10.0 mi North 10.4 mph 17.3 mph N/A   Overcast
10:49 PM 17.6 °F 6.4 °F 12.2 °F 79% 30.10 in 10.0 mi North 9.2 mph - N/A   Overcast
11:09 PM 17.6 °F 9.3 °F 12.2 °F 79% 30.10 in 10.0 mi North 5.8 mph - N/A   Overcast
11:29 PM 15.8 °F 5.1 °F 12.2 °F 86% 30.13 in 10.0 mi North 8.1 mph - N/A   Overcast
11:49 PM 15.8 °F 5.1 °F 10.4 °F 79% 30.10 in 10.0 mi NNE 8.1 mph - N/A   Overcast